TITAN 3C TRANSTAGE DEB, 43447

Orbit data source: Space-Track

TITAN 3C TRANSTAGE DEB, 43447 is space debris in GEO originally from a launch on Sun, 09 Feb 1969 UTC launched from the Air Force Eastern Test Range (AFETR). Debris objects in space refer to the collection of defunct objects orbiting the Earth. Examples of debris include non-operational satellites, rocket bodies, and fragments generated from explosions, collisions, or faulty payload assembly.

Not visible in the next 10 days
Identifier
43447, 1969-013G
Orbit
GEO
Last TLE update
2 days ago
Origin
Manufacturer
Martin Marietta
Mission
Spacecraft
Bus & Motor
Unknown
Mass
Unknown
Launch date (UTC)
1969-02-09 (56 years ago)
Launch vehicle
Unknown
Launch site
Air Force Eastern Test Range (AFETR)
Object type
Payload
Rocket body
Debris
Shape & HBR
Unknown
Radar Cross Section
RCS unknown

Expand to show TLE details & history

TLE from 2 days ago
0 TITAN 3C TRANSTAGE DEB
1 43447U 69013G   25180.76832064 -.00000259  00000-0  00000-0 0  9990
2 43447   0.3436  83.3104 0140838  18.5943 259.6682  0.97141530 25840
Epoch: 2025-06-29T18:26Z
TLE epoch observation values (Epoch: 2025-06-29T18:26:22.903Z)
Latitude
-0.34939°
Longitude
165.31705°
Altitude
36,804.288 km
Speed
3.034 km/s
True Right ascension
00h 00m 00s
True Declination
0° 20' 57"
Sunlit
Object was in daylight at epoch
Visualization orbit readout
Latitude
0.21215°
Longitude
29.4376°
Altitude
37,005.595 km
Speed
3.02 km/s
Apparent Right ascension
14h 32m 20s
Apparent Declination
-4° 58' 28"
Sunlit
Object is in daylight
Visualization observer readout
Local Sidereal Time
21:57:47
Azimuth
280.166° WNW
Elevation
-19.511°
Doppler factor
1
Orbital elements
Apogee altitude
37,295.193 km
Perigee altitude
36,082.105 km
Semi-major axis
43,066.786 km
Eccentricity
0.01408
Inclination
0.3436°
RAAN
83.3104°
Arg. of periapsis
18.5943°
True anomaly
Unknown
Mean anomaly
259.6682°
Eccentric anomaly
Unknown
Mean motion
0.24285 °/min
Orbital period
1,482.43 mins
BSTAR
0
Loading historical data...
43447 neighbors
Loading maneuver chart data...
Loading SW <> Apogee altitude chart data...

TITAN 3C TRANSTAGE DEB Visibility

Observer location: undefined°, undefined°

TITAN 3C TRANSTAGE DEB is likely not visible in the next few days
Span
Click to sort rows by Start time (UTC) header in descending order
Start Az.
Max El. time (UTC)
Max El. Az.
Max El.
End time (UTC)
End Az.
|